OBJECT AU, 60510

Orbit data source: Space-Track

You're viewing an Uncataloged Satellite

Recently launched and/or uncataloged satellites may have evolving metadata. Metadata may include but not limited to: Owner, Maufacturer, Bus, Motor, and Mission.

OBJECT AU, 60510 is a satellite in SSO that was launched on Fri, 16 Aug 2024 UTC via an FALCON 9 launch vehicle from the Air Force Western Test Range (AFWTR). Unknown objects in Earth's orbit typically refer to objects detected orbiting the Earth but have not yet been identified or cataloged. These objects could be anything from previously untracked satellites, spent rocket stages, debris from satellite collisions, or even natural meteoroids temporarily captured by Earth's gravity.

Loading next visibility...
Identifier
60510, 2024-149AU
Orbit
SSO
Country
Flag of TBDTBD
Related business
None
Manufacturer
Unknown
Mission
Operational Civil Communications
Bus & Motor
Unknown
Mass
Unknown
Launch date (UTC)
2024-08-16 (2 years ago)
Launch vehicle
FALCON 9
Launch site
Air Force Western Test Range (AFWTR)
Object type
Unknown
Shape & HBR
Box, 0.2 m
Radar Cross Section
0.045 m², Medium (>0.1 m² and < 1m²)

Expand to show TLE details & history
Last TLE update: 2 days ago

TLE from 2 days ago
0 OBJECT AU
1 60510U 24149AU  26173.19023123  .00011411  00000-0  28483-3 0  9998
2 60510  97.3726 256.9510 0002323 259.6881 100.4103 15.40338897103084
Epoch: 2026-06-22T04:33Z
TLE epoch observation values (Epoch: 2026-06-22T04:33:55.978Z)
Latitude
-0.00005°
Longitude
-81.91194°
Altitude
448.514 km
Speed
7.643 km/s
True Right ascension
17h 07m 48s
True Declination
0° 00' 00"
Sunlit
Object was in full shadow at epoch
Visualization orbit readout
Latitude
Unknown
Longitude
Unknown
Altitude
Unknown
Speed
Unknown
Apparent Right ascension
Unknown
Apparent Declination
Unknown
Sunlit
N/A
Visualization observer readout
Local Sidereal Time
12:20:31
Azimuth
Unknown
Elevation
Unknown
Doppler factor
Unknown
Orbital elements
Apogee altitude
443.63 km
Perigee altitude
440.461 km
Semi-major axis
6,820.183 km
Eccentricity
0.00023
Inclination
97.3726°
RAAN
256.951°
Arg. of periapsis
259.6881°
True anomaly
100.43648°
Mean anomaly
100.4103°
Eccentric anomaly
100.42339°
Mean motion
3.85344 °/min
Orbital period
93.42 mins
BSTAR
0.00028483
Loading maneuver chart data...
Computing Atmospheric mass density...
Loading historical data...
Loading historical data...
Loading historical data...
Loading historical data...
Loading historical data...
Loading historical data...
Loading historical data...

Documentation

Showing up to 5 results
|